This demonstration page uses our WeatherBlox Daily Observations layout. Learn more.

Left ArrowRight Arrow

30.21309, -93.2044

Hourly Observations for May 6, 2015

Temp ( °F °C ) Dew Point ( °F °C ) Humidity (%) Winds ( mph kmh ) Pressure ( in mb ) Visibility ( mi km ) Precip ( " mm )
12:15 am 00:15 Clear 69 20.4 64 18 86 86 ESE 9 15 30.09 1019 10 16 0.00 0.00
12:35 am 00:35 Clear 69 20.4 64 18 86 86 ESE 8 13 30.06 1018 10 16 0.00 0.00
12:55 am 00:55 Clear 69 20.6 64 17.9 85 85 ESE 9 15 30.06 1018 10 16 0.00 0.00
1:15 am 01:15 Clear 69 20.4 64 17.6 84 84 ESE 8 13 30.06 1018 10 16 0.00 0.00
1:35 am 01:35 Clear 68 20.1 64 17.5 85 85 ESE 7 11 30.06 1018 10 16 0.00 0.00
1:55 am 01:55 Clear 68 20.1 64 17.6 86 86 E 3 6 30.06 1018 10 16 0.00 0.00
2:15 am 02:15 Clear 68 19.9 64 17.6 87 87 ESE 5 7 30.06 1018 10 16 0.00 0.00
2:35 am 02:35 Clear 67 19.5 64 17.5 88 88 ESE 5 7 30.03 1017 10 16 0.00 0.00
2:55 am 02:55 Clear 67 19.5 64 17.9 91 91 E 6 9 30.03 1017 10 16 0.00 0.00
3:15 am 03:15 Clear 67 19.4 64 17.9 91 91 E 6 9 30.03 1017 10 16 0.00 0.00
3:35 am 03:35 Clear 66 19.1 64 17.8 92 92 E 3 6 30.03 1017 10 16 0.00 0.00
3:55 am 03:55 Clear 65 18.6 64 17.6 94 94 ENE 3 6 30.03 1017 10 16 0.00 0.00
4:15 am 04:15 Clear 65 18.5 64 17.5 94 94 ENE 3 6 30.03 1017 10 16 0.00 0.00
4:35 am 04:35 Clear 65 18.5 64 17.7 95 95 E 6 9 30.03 1017 10 16 0.00 0.00
4:55 am 04:55 Clear 65 18.5 64 17.7 95 95 E 6 9 30.00 1016 10 16 0.00 0.00
5:15 am 05:15 Clear 65 18.4 64 17.7 96 96 E 6 9 30.00 1016 10 16 0.00 0.00
6:00 am 06:00 Mostly Clear 64 18 64 18 100 100 E 7 11 30.03 1017 10 16 0.00 0.00
6:50 am 06:50 Mostly Sunny 64 18 64 18 100 100 E 5 7 30.03 1017 10 16 0.00 0.00
7:50 am 07:50 Mostly Sunny 70 21 66 19 88 88 ESE 7 11 30.03 1017 10 16 0.00 0.00
8:50 am 08:50 Mostly Sunny 73 23 68 20 83 83 ESE 13 20 30.06 1018 10 16 0.00 0.00
9:47 am 09:47 Mostly Cloudy 79 26 70 21 74 74 ESE 13 20 30.06 1018 10 16 0.00 0.00
10:50 am 10:50 Mostly Cloudy 79 26 68 20 70 70 ESE 10 17 30.06 1018 10 16 0.00 0.00
11:50 am 11:50 Cloudy 79 26 68 20 70 70 ESE 14 22 30.03 1017 10 16 0.00 0.00
12:50 pm 12:50 Mostly Cloudy 81 27 68 20 66 66 SE 12 19 30.03 1017 10 16 0.00 0.00
1:50 pm 13:50 Mostly Cloudy 82 28 68 20 62 62 ESE 10 17 30.03 1017 10 16 0.00 0.00
9:50 pm 21:50 Mostly Clear 70 21 66 19 88 88 ESE 5 7 30.00 1016 10 16 0.00 0.00
10:15 pm 22:15 Clear 70 21 66 18.9 88 88 Calm 30.00 1016 10 16 0.00 0.00
10:35 pm 22:35 Clear 69 20.6 66 18.7 89 89 E 3 6 30.00 1016 10 16 0.00 0.00
10:55 pm 22:55 Clear 69 20.3 66 18.8 91 91 Calm 30.00 1016 10 16 0.00 0.00
11:15 pm 23:15 Clear 68 20.1 66 19 93 93 SSE 3 6 30.00 1016 10 16 0.00 0.00
11:35 pm 23:35 Clear 69 20.6 68 19.9 96 96 SE 7 11 30.00 1016 10 16 0.00 0.00
11:55 pm 23:55 Clear 70 21.1 68 20.1 94 94 SE 5 7 30.00 1016 10 16 0.00 0.00

Powered by AerisWeather